FENGYUN 1C DEB, 31992

Orbit data source: Space-Track

FENGYUN 1C DEB, 31992 is space debris in SSO originally from a launch on Mon, 10 May 1999 UTC launched from the Taiyaun Space Center, China (TSC). Fengyun 1C debris stems from the Chinese weather satellite Fengyun-1C, which was intentionally destroyed by a Chinese anti-satellite missile in 2007. This event dramatically increased the amount of space debris, with thousands of trackable fragments posing hazards to satellites and human spaceflight. The Fengyun 1C debris cloud has become a focal point in discussions about space sustainability and the need for international regulations to prevent the creation of new debris.

Loading next visibility...
Identifier
31992, 1999-025CPV
Orbit
SSO
Country
Flag of CNCN / PRC
Related business
Manufacturer
Unknown
Mission
Spacecraft
Bus & Motor
Unknown
Mass
Unknown
Launch date (UTC)
1999-05-10 (27 years ago)
Launch vehicle
Unknown
Launch site
Taiyaun Space Center, China (TSC)
Object type
Payload
Rocket body
Debris
Shape & HBR
Unknown shape, 0.1 m
Radar Cross Section
Small (<0.1 m²)

Expand to show TLE details & history
Last TLE update: 4 weeks ago

TLE from 4 weeks ago
0 FENGYUN 1C DEB
1 31992U 99025CPV 26036.59770808  .00000617  00000-0  71684-3 0  9993
2 31992  99.1724 355.0817 0540083 256.7546  97.2818 13.23123651546009
Epoch: 2026-02-05T14:20Z
TLE epoch observation values (Epoch: 2026-02-05T14:20:41.978Z)
Latitude
-0.00001°
Longitude
4.15915°
Altitude
1,248.698 km
Speed
7.196 km/s
True Right ascension
23h 40m 19s
True Declination
0° 00' 00"
Sunlit
Object was in daylight at epoch
Visualization orbit readout
Latitude
Unknown
Longitude
Unknown
Altitude
Unknown
Speed
Unknown
Apparent Right ascension
Unknown
Apparent Declination
Unknown
Sunlit
N/A
Visualization observer readout
Local Sidereal Time
15:31:01
Azimuth
Unknown
Elevation
Unknown
Doppler factor
Unknown
Orbital elements
Apogee altitude
1,577.78 km
Perigee altitude
762.444 km
Semi-major axis
7,548.249 km
Eccentricity
0.05401
Inclination
99.1724°
RAAN
355.0817°
Arg. of periapsis
256.7546°
True anomaly
103.35729°
Mean anomaly
97.2818°
Eccentric anomaly
100.32613°
Mean motion
3.30959 °/min
Orbital period
108.77 mins
BSTAR
0.00071684
Loading maneuver chart data...
Computing Atmospheric mass density...

Documentation

Showing up to 5 results
|